Hourly Weather Sugul

Today, 21 January, Thursday

Time Temperature Precipitation Wind Pressure Humidity
00:00 -8°C° 0 mm 1 mps 726 mmHg 88%
01:00 -7°C° 0 mm 1 mps 726 mmHg 89%
02:00 -6°C° 0 mm 0 mps 726 mmHg 90%
03:00 -6°C° 0 mm 0 mps 726 mmHg 91%
04:00 -5°C° 0.1 mm 0 mps 726 mmHg 92%
05:00 -5°C° 0.1 mm 0 mps 726 mmHg 92%
06:00 -4°C° 0 mm 1 mps 726 mmHg 93%
07:00 -4°C° 0 mm 0 mps 726 mmHg 93%
08:00 -4°C° 0 mm 0 mps 725 mmHg 92%
09:00 -3°C° 0 mm 0 mps 725 mmHg 91%
10:00 -2°C° 0 mm 0 mps 725 mmHg 91%
11:00 -1°C° 0 mm 0 mps 725 mmHg 91%
12:00 0°C° 0 mm 0 mps 725 mmHg 91%
13:00 -1°C° 0.2 mm 0 mps 724 mmHg 93%
14:00 0°C° 0.2 mm 1 mps 724 mmHg 95%
15:00 0°C° 0.2 mm 1 mps 723 mmHg 97%
16:00 -1°C° 0.1 mm 1 mps 723 mmHg 97%
17:00 -3°C° 0.1 mm 0 mps 724 mmHg 97%
18:00 -4°C° 0.1 mm 0 mps 724 mmHg 98%
19:00 -4°C° 0 mm 0 mps 723 mmHg 97%
20:00 -3°C° 0 mm 1 mps 722 mmHg 96%
21:00 -3°C° 0 mm 1 mps 722 mmHg 96%
22:00 -3°C° 0 mm 1 mps 721 mmHg 94%
23:00 -3°C° 0 mm 1 mps 720 mmHg 93%

Tomorrow, 22 January, Friday

Time Temperature Precipitation Wind Pressure Humidity
00:00 -3°C° 0 mm 1 mps 720 mmHg 91%
01:00 -3°C° 0 mm 1 mps 719 mmHg 91%
02:00 -2°C° 0 mm 1 mps 718 mmHg 90%
03:00 -2°C° 0 mm 1 mps 718 mmHg 89%
04:00 -2°C° 0 mm 1 mps 717 mmHg 88%
05:00 -2°C° 0 mm 1 mps 717 mmHg 86%
06:00 -3°C° 0 mm 1 mps 716 mmHg 85%
07:00 -4°C° 0.1 mm 0 mps 717 mmHg 87%
08:00 -4°C° 0.1 mm 0 mps 717 mmHg 89%
09:00 -4°C° 0.1 mm 0 mps 717 mmHg 91%
10:00 -2°C° 0.1 mm 1 mps 717 mmHg 92%
11:00 -4°C° 0.1 mm 2 mps 717 mmHg 93%
12:00 -4°C° 0.1 mm 3 mps 717 mmHg 93%
13:00 -6°C° 0.3 mm 3 mps 718 mmHg 94%
14:00 -6°C° 0.3 mm 2 mps 718 mmHg 94%
15:00 -7°C° 0.3 mm 2 mps 719 mmHg 94%
16:00 -8°C° 0.6 mm 2 mps 719 mmHg 95%
17:00 -9°C° 0.6 mm 2 mps 720 mmHg 95%
18:00 -9°C° 0.6 mm 1 mps 720 mmHg 96%
19:00 -9°C° 0.7 mm 1 mps 721 mmHg 96%
20:00 -10°C° 0.7 mm 1 mps 721 mmHg 96%
21:00 -10°C° 0.7 mm 1 mps 722 mmHg 96%
22:00 -11°C° 0.5 mm 1 mps 723 mmHg 96%
23:00 -11°C° 0.5 mm 1 mps 724 mmHg 96%

Day after tomorrow, 23 January, Saturday

Time Temperature Precipitation Wind Pressure Humidity
00:00 -12°C° 0.5 mm 1 mps 725 mmHg 96%
01:00 -12°C° 0.3 mm 1 mps 726 mmHg 96%
02:00 -13°C° 0.3 mm 1 mps 727 mmHg 96%
03:00 -14°C° 0.3 mm 1 mps 728 mmHg 96%
04:00 -15°C° 0.2 mm 1 mps 729 mmHg 97%
05:00 -15°C° 0.2 mm 1 mps 730 mmHg 97%
06:00 -16°C° 0.2 mm 1 mps 730 mmHg 97%
07:00 -17°C° 0.1 mm 1 mps 731 mmHg 98%
08:00 -18°C° 0.1 mm 1 mps 732 mmHg 98%
09:00 -18°C° 0.1 mm 0 mps 732 mmHg 99%
10:00 -17°C° 0 mm 0 mps 732 mmHg 96%
11:00 -16°C° 0 mm 0 mps 732 mmHg 93%
12:00 -15°C° 0 mm 0 mps 732 mmHg 91%
13:00 -14°C° 0 mm 0 mps 732 mmHg 91%
14:00 -14°C° 0 mm 0 mps 732 mmHg 91%
15:00 -13°C° 0 mm 0 mps 732 mmHg 90%
16:00 -14°C° 0 mm 0 mps 732 mmHg 92%
17:00 -15°C° 0 mm 0 mps 733 mmHg 93%
18:00 -16°C° 0 mm 0 mps 733 mmHg 95%
19:00 -16°C° 0 mm 0 mps 733 mmHg 94%
20:00 -16°C° 0 mm 0 mps 733 mmHg 94%
21:00 -16°C° 0 mm 0 mps 734 mmHg 94%
22:00 -16°C° 0 mm 0 mps 734 mmHg 93%
23:00 -16°C° 0 mm 0 mps 733 mmHg 93%

24 January, Sunday

Time Temperature Precipitation Wind Pressure Humidity
00:00 -16°C° 0 mm 0 mps 733 mmHg 92%
01:00 -16°C° 0 mm 0 mps 733 mmHg 92%
02:00 -16°C° 0 mm 0 mps 733 mmHg 91%
03:00 -16°C° 0 mm 0 mps 734 mmHg 91%
04:00 -16°C° 0 mm 1 mps 734 mmHg 90%
05:00 -16°C° 0 mm 1 mps 734 mmHg 89%
06:00 -16°C° 0 mm 1 mps 734 mmHg 88%
07:00 -16°C° 0 mm 1 mps 734 mmHg 87%
08:00 -15°C° 0 mm 0 mps 734 mmHg 87%
09:00 -15°C° 0 mm 0 mps 734 mmHg 86%
10:00 -14°C° 0 mm 0 mps 733 mmHg 84%
11:00 -12°C° 0 mm 0 mps 733 mmHg 82%
12:00 -11°C° 0 mm 0 mps 733 mmHg 79%
13:00 -11°C° 0 mm 1 mps 733 mmHg 82%
14:00 -11°C° 0 mm 1 mps 733 mmHg 85%
15:00 -11°C° 0 mm 1 mps 732 mmHg 88%
16:00 -15°C° 0.2 mm 2 mps 733 mmHg 91%
17:00 -16°C° 0.2 mm 2 mps 733 mmHg 93%
18:00 -18°C° 0.2 mm 3 mps 734 mmHg 96%
19:00 -19°C° 0.2 mm 2 mps 734 mmHg 97%
20:00 -20°C° 0.2 mm 2 mps 735 mmHg 97%
21:00 -19°C° 0.2 mm 1 mps 735 mmHg 98%
22:00 -20°C° 0.1 mm 1 mps 736 mmHg 98%
23:00 -21°C° 0.1 mm 1 mps 736 mmHg 99%

25 January, Monday

Time Temperature Precipitation Wind Pressure Humidity
00:00 -22°C° 0.1 mm 1 mps 737 mmHg 99%
01:00 -23°C° 0.1 mm 1 mps 737 mmHg 99%
02:00 -23°C° 0.1 mm 1 mps 737 mmHg 99%
03:00 -24°C° 0.1 mm 1 mps 738 mmHg 99%
04:00 -25°C° 0.1 mm 1 mps 738 mmHg 99%
05:00 -25°C° 0.1 mm 1 mps 738 mmHg 99%
06:00 -26°C° 0.1 mm 0 mps 738 mmHg 99%
07:00 -26°C° 0.1 mm 0 mps 739 mmHg 99%
08:00 -26°C° 0.1 mm 0 mps 739 mmHg 98%
09:00 -26°C° 0.1 mm 0 mps 740 mmHg 98%
10:00 -25°C° 0 mm 0 mps 739 mmHg 96%
11:00 -24°C° 0 mm 0 mps 739 mmHg 95%
12:00 -23°C° 0 mm 1 mps 739 mmHg 93%
13:00 -23°C° 0 mm 1 mps 739 mmHg 94%
14:00 -23°C° 0 mm 1 mps 739 mmHg 94%
15:00 -23°C° 0 mm 1 mps 739 mmHg 95%
16:00 -24°C° 0 mm 1 mps 739 mmHg 96%
17:00 -25°C° 0 mm 0 mps 739 mmHg 98%
18:00 -26°C° 0 mm 0 mps 740 mmHg 99%
19:00 -26°C° 0 mm 0 mps 740 mmHg 99%
20:00 -27°C° 0 mm 0 mps 739 mmHg 98%
21:00 -27°C° 0 mm 0 mps 739 mmHg 98%
22:00 -27°C° 0 mm 0 mps 739 mmHg 97%
23:00 -27°C° 0 mm 0 mps 739 mmHg 96%

26 January, Tuesday

Time Temperature Precipitation Wind Pressure Humidity
00:00 -27°C° 0 mm 0 mps 739 mmHg 95%
01:00 -27°C° 0 mm 0 mps 739 mmHg 94%
02:00 -26°C° 0 mm 0 mps 739 mmHg 93%
03:00 -26°C° 0 mm 0 mps 739 mmHg 92%
04:00 -26°C° 0 mm 0 mps 739 mmHg 91%
05:00 -25°C° 0 mm 0 mps 739 mmHg 91%
06:00 -25°C° 0 mm 0 mps 739 mmHg 90%
07:00 -25°C° 0 mm 0 mps 739 mmHg 89%
08:00 -24°C° 0 mm 0 mps 739 mmHg 89%
09:00 -23°C° 0 mm 0 mps 739 mmHg 88%
10:00 -22°C° 0 mm 0 mps 738 mmHg 86%
11:00 -20°C° 0 mm 0 mps 738 mmHg 84%
12:00 -18°C° 0 mm 0 mps 738 mmHg 83%
13:00 -18°C° 0 mm 1 mps 738 mmHg 85%
14:00 -18°C° 0 mm 1 mps 738 mmHg 87%
15:00 -18°C° 0 mm 1 mps 738 mmHg 90%
16:00 -20°C° 0 mm 0 mps 738 mmHg 92%
17:00 -22°C° 0 mm 0 mps 738 mmHg 94%
18:00 -24°C° 0 mm 0 mps 739 mmHg 97%
19:00 -24°C° 0 mm 0 mps 739 mmHg 96%
20:00 -24°C° 0 mm 0 mps 739 mmHg 95%
21:00 -24°C° 0 mm 0 mps 740 mmHg 94%
22:00 -24°C° 0 mm 0 mps 740 mmHg 94%
23:00 -24°C° 0 mm 0 mps 740 mmHg 94%
Show more